Location: Spruce Knob
(38.6995°N, 79.5330°W)
Time: 18:56:47
(UTC-04:00)

FO-29 - Pass Details

Date: 28 November 2023
Orbit: 801 x 1320 km, 98.6° (Epoch: 06 October)

Event Time Altitude Azimuth Distance (km) Brightness Sun altitude
Rises 03:32:14 0° 11° (N) 4,064 12.9 -42.8°
Reaches altitude 10° 03:34:46 10° 10° (N) 3,157 12.3 -42.3°
Enters shadow 03:35:09 12° 10° (N) 3,023 12.1 -42.2°
